Weather in Zolotukha

Russia / Altai Krai     50°48′46″N   81°31′46″E
temp.,
°C
wind,
m/s
gust,
m/s
humid.,
%
clouds,
%
prec.,
mm/h
press.,
hPa
HPBL,
m
20 may, fri
fri2001:00+15sse238597 2.2 101548
04:00+15se228159 0.9 101628
07:00+15wnw128097 0.9 101752
10:00+19wsw11455 0.0 1017694
13:00+21w353458 0.0 10171906
16:00+23w45255 0.0 10152540
19:00+22w35305 0.0 10152391
22:00+17nnw11415 0.0 101611
21 may, sat
sat2101:00+16se224266 0.0 101612
04:00+14sse33448 0.0 101522
07:00+15se22496 0.0 101528
10:00+21ese23342 0.0 1014426
13:00+24ne56321 0.0 10111317
16:00+26ne673095 0.0 10081392
19:00+25ne463999 0.0 1006328
22:00+19ene2259100 0.0 100516
22 may, sun
sun2201:00+19se2249100 0.0 100212
04:00+18sse3453100 0.0 100150
07:00+19sse51454100 0.1 1002310
10:00+24sse8124410 0.0 1001977
13:00+27s89385 0.0 10001946
16:00+30sw682679 0.0 10003369
19:00+24sw4742100 0.0 1002110
22:00+15nw71386100 1.1 1011550
23 may, mon
mon2301:00+14nw2980100 2.0 1015518
04:00+13nnw41057100 0.0 1018403
07:00+12n3957100 0.0 1020341
10:00+15nne6733100 0.0 10211044
13:00+18nne6731100 0.0 10201262
16:00+19nne78316 0.0 10191267
19:00+18nne68392 0.0 10181027
22:00+13nne51150100 0.0 1017286
24 may, tue
tue2401:00+11n4107496 0.0 1017218
04:00+9n3992100 0.0 1016204
07:00+10n498799 0.0 1016239
10:00+16nne576598 0.0 1014450
13:00+21nne6749100 0.0 1013892
16:00+23nne784620 0.0 10121125
19:00+22nne6853100 0.0 1012972
22:00+18n51160100 0.0 1013452